sat.trackr.live / text

‹ back to catalog

UNKNOWN

NORAD 82893

UNKNOWN UNKNOWN UNKNOWN

§ Identity

Operator
Country
Launch date
Launch site
Launch vehicle
Mass (kg)
RCS (m²)

External: N2YO · Heavens-Above

§ Orbital elements

Epoch: 2026-05-23T07:14:35.741184Z

Period
100.39 min
Inclination
98.9655°
Eccentricity
0.0020753
Mean motion
14.34384219 rev/d
Perigee alt
762.3 km
Apogee alt
792.0 km
Semi-major
7,155.3 km
B*
1.9160e-3
RAAN
268.9828°
Arg perigee
286.7439°
Mean anomaly
73.1467°
Rev number
44,711

§ Raw data

UNKNOWN1 82893U          26143.30180256  .00005359  00000+0  19160-2 0  99912 82893  98.9655 268.9828 0020753 286.7439  73.1467 14.34384219447117

JSON: /api/v1/satellites/82893 · /tle

For live sub-satellite position, see the globe view (requires WebGL).

§ Visibility from observer

Set your observer location to see the next 7 days of passes ≥ 10°. The values pass through the URL so the page stays shareable.

No JS? Fill the form by hand. The geolocation button needs JavaScript.